Volver al catálogo

ATLAS 5 CENTAUR DEB

ActivoHEO
NORAD 53516·DEBRIS·🇺🇸 United States

Lanzado Sep 17, 2014 desde Cape Canaveral Space Force Station

Loading…

Próximos Pases (próximas 24 horas)

TLE

EnvejeciendoSource: Space-Track

Época: Aug 30, 2026, 22:39 UTC

1 53516U 14055DP  26242.94408669 -.00000045  00000-0  00000-0 0  9997
2 53516  19.8202 148.9854 4737334 153.5563 241.3496  1.82544296 27449

Sigue ATLAS 5 CENTAUR DEB en tiempo real con AllMySat

Download on the App Store